GW3674 Weather Reports


Display with metric or nautical units.
time (UTC)temp
F
wind
direction
speed
MPH
gust
MPH
rain 1hr
in
rain 24hr
in
rain mn
in
humidity
%
barometer
mb
20260906110003 73 320 0.0 2.0 0.00 0.00 0.00 83 1011.4
20260906104507 73 320 1.0 2.0 0.00 0.00 0.00 83 1011.2
20260906103010 73 320 0.0 1.0 0.00 0.00 0.00 83 1011.2
20260906101516 73 320 0.0 1.0 0.00 0.00 0.00 83 1010.9
20260906100025 73 320 0.0 0.0 0.00 0.00 0.00 83 1010.8
20260906094520 73 320 0.0 0.0 0.00 0.00 0.00 83 1010.6
20260906093017 73 320 0.0 1.0 0.00 0.00 0.00 83 1010.6
20260906091510 73 320 0.0 1.0 0.00 0.00 0.00 83 1010.3
20260906090024 73 320 0.0 2.0 0.00 0.00 0.00 84 1010.5
20260906084526 74 320 0.0 1.0 0.00 0.00 0.00 84 1010.4
20260906083005 74 309 0.0 3.0 0.00 0.00 0.00 84 1010.4
20260906081511 74 309 0.0 2.0 0.00 0.00 0.00 83 1010.7
20260906080013 74 38 0.0 2.0 0.00 0.00 0.00 83 1010.6
20260906074527 74 39 0.0 1.0 0.00 0.00 0.00 84 1010.8
20260906073027 74 39 0.0 2.0 0.00 0.00 0.00 84 1011.0
20260906071530 74 39 0.0 2.0 0.00 0.00 0.00 83 1010.9
20260906070013 74 39 0.0 1.0 0.00 0.00 0.00 83 1011.1
20260906064518 74 39 0.0 1.0 0.00 0.00 0.00 84 1011.1
20260906063023 75 39 0.0 1.0 0.00 0.00 0.00 83 1011.4
20260906061529 75 39 0.0 2.0 0.00 0.00 0.00 83 1011.3
20260906060031 75 38 1.0 3.0 0.00 0.00 0.00 83 1011.1
20260906054518 75 38 0.0 1.0 0.00 0.00 0.00 83 1011.2
20260906053019 75 38 0.0 1.0 0.00 0.00 0.00 83 1011.1
20260906051524 75 38 0.0 0.0 0.00 0.00 0.00 83 1011.6
20260906050031 75 38 0.0 2.0 0.00 0.00 0.00 83 1011.7
20260906044528 75 39 0.0 1.0 0.00 0.00 0.00 82 1011.8
20260906043015 76 39 0.0 3.0 0.00 0.00 0.00 82 1012.0
20260906041523 76 345 0.0 4.0 0.00 0.00 0.00 81 1012.1
20260906040032 76 335 1.0 3.0 0.00 0.00 0.00 82 1011.9
20260906034509 76 309 1.0 4.0 0.00 0.00 0.00 82 1012.0
20260906033013 76 317 2.0 8.0 0.00 0.00 0.00 81 1012.2
20260906031519 77 325 3.0 9.0 0.00 0.00 0.00 81 1012.1
20260906030009 77 346 2.0 4.0 0.00 0.00 0.00 81 1012.0
20260906024517 78 323 2.0 4.0 0.00 0.00 0.00 82 1012.1
20260906023018 78 317 0.0 4.0 0.00 0.00 0.00 81 1011.7
20260906021519 78 259 1.0 3.0 0.00 0.00 0.00 79 1011.2
20260906020022 79 294 2.0 4.0 0.00 0.00 0.00 77 1011.0
20260906014505 79 230 3.0 6.0 0.00 0.00 0.00 75 1010.7
20260906013020 78 344 4.0 8.0 0.00 0.00 0.00 77 1010.8
20260906011514 79 115 2.0 10.0 0.00 0.00 0.00 76 1009.1
20260906010024 79 195 4.0 6.0 0.00 0.00 0.00 73 1010.3
20260906004526 81 207 1.0 7.0 0.00 0.00 0.00 70 1011.1
20260906003004 82 267 1.0 13.0 0.00 0.00 0.00 64 1011.6
20260906001508 84 287 9.0 17.0 0.00 0.00 0.00 62 1011.8
20260906000019 86 39 8.0 12.0 0.00 0.00 0.00 64 1012.2
20260905234523 88 5 7.0 12.0 0.00 0.00 0.00 70 1011.9
20260905233027 88 219 1.0 3.0 0.00 0.00 0.00 74 1011.1
20260905231508 89 219 3.0 5.0 0.00 0.00 0.00 73 1011.3
20260905230013 89 221 2.0 9.0 0.00 0.00 0.00 72 1011.4
20260905224519 92 221 4.0 9.0 0.00 0.00 0.00 64 1010.9
20260905223022 93 219 2.0 7.0 0.00 0.00 0.00 59 1010.7
20260905221530 94 202 2.0 6.0 0.00 0.00 0.00 58 1010.6
20260905220012 93 207 2.0 7.0 0.00 0.00 0.00 58 1010.7
20260905214525 93 207 2.0 5.0 0.00 0.00 0.00 59 1010.6
20260905213019 94 180 5.0 9.0 0.00 0.00 0.00 58 1010.3
20260905211536 95 209 1.0 4.0 0.00 0.00 0.00 56 1010.2
20260905210036 94 224 1.0 9.0 0.00 0.00 0.00 57 1010.3
20260905204537 94 318 2.0 5.0 0.00 0.00 0.00 56 1010.4
20260905203016 93 219 3.0 7.0 0.00 0.00 0.00 58 1010.0
20260905201526 93 221 2.0 6.0 0.00 0.00 0.00 58 1010.1
20260905200035 93 214 3.0 8.0 0.00 0.00 0.00 59 1010.3
20260905194531 92 225 1.0 9.0 0.00 0.00 0.00 59 1010.6
20260905193031 93 217 1.0 8.0 0.00 0.00 0.00 59 1010.8
20260905191519 92 211 0.0 10.0 0.00 0.00 0.00 60 1010.8
20260905190027 92 298 2.0 7.0 0.00 0.00 0.00 61 1011.3
20260905184504 91 198 3.0 7.0 0.00 0.00 0.00 62 1011.8
20260905183001 91 259 4.0 9.0 0.00 0.00 0.00 62 1012.0
20260905181501 90 306 2.0 10.0 0.00 0.00 0.00 64 1012.1
20260905180004 90 325 2.0 9.0 0.00 0.00 0.00 67 1012.3
20260905174502 90 269 4.0 8.0 0.00 0.00 0.00 65 1012.4
20260905173003 90 273 5.0 9.0 0.00 0.00 0.00 65 1012.5
20260905171504 89 293 2.0 7.0 0.00 0.00 0.00 68 1012.7
20260905170003 89 180 2.0 6.0 0.00 0.00 0.00 68 1013.0
20260905164503 88 279 1.0 7.0 0.00 0.00 0.00 69 1013.3
20260905163006 88 268 3.0 9.0 0.00 0.00 0.00 71 1013.5
20260905161503 87 260 3.0 7.0 0.00 0.00 0.00 72 1013.7
20260905160003 86 221 0.0 5.0 0.00 0.00 0.00 74 1014.1
20260905154502 86 306 4.0 10.0 0.00 0.00 0.00 74 1014.3
20260905153004 85 350 2.0 9.0 0.00 0.00 0.00 76 1014.4
20260905151504 85 201 2.0 9.0 0.00 0.00 0.00 77 1014.5
20260905150004 84 259 2.0 5.0 0.00 0.00 0.00 78 1014.7
20260905144504 83 270 3.0 6.0 0.00 0.00 0.00 81 1014.6
20260905143005 83 271 5.0 9.0 0.00 0.00 0.00 81 1014.6
20260905141503 82 302 5.0 9.0 0.00 0.00 0.00 82 1014.4
20260905140005 82 308 4.0 11.0 0.00 0.00 0.00 82 1014.4
20260905134505 81 290 5.0 9.0 0.00 0.00 0.00 82 1014.7
20260905133004 81 274 3.0 9.0 0.00 0.00 0.00 83 1014.7
20260905131506 79 277 4.0 8.0 0.00 0.00 0.00 82 1014.8
20260905130005 79 330 3.0 8.0 0.00 0.00 0.00 80 1014.6
20260905124507 78 310 2.0 5.0 0.00 0.00 0.00 79 1014.6
20260905123015 77 300 1.0 4.0 0.00 0.00 0.00 79 1015.0
20260905121508 77 305 2.0 4.0 0.00 0.00 0.00 79 1014.3
20260905120007 77 300 2.0 4.0 0.00 0.00 0.00 79 1014.5
20260905114506 76 311 0.0 2.0 0.00 0.00 0.00 79 1014.4
20260905113008 76 311 0.0 1.0 0.00 0.00 0.00 79 1014.5
20260905111508 76 311 0.0 2.0 0.00 0.00 0.00 79 1014.2